Flag for Germany Weather past 2 weeks in Paderborn, North Rhine-Westphalia, Germany

Now
60 °F

Overcast.


Feels Like: 60 °F
Forecast: 53 / 80 °F
Wind: 1 mph from South

Location: Bad Lippspringe

Current Time: Jul 31, 2014 at 4:17:06 AM

Latest Report: Jul 31, 2014 at 4:00 AM


Visibility: 8 mi

Pressure: 29.98 "Hg

Humidity: 95%

Dew point: 58 °F

Location of PaderbornLocation

Historic Weather in Paderborn — Graph

°F

Paderborn temperature yesterday

Maximum temperature yesterday: 72 °F (at 5:00 PM)
Minimum temperature yesterday: 64 °F (at 9:00 AM)
Average temperature yesterday: 67 °F

Past Weeks' High & Low Weather Summary

 TemperatureHumidityPressure
High90 °F (Jul 19, 4:00 PM)98% (Jul 26, 5:00 AM)30.19 "Hg (Jul 26, 5:00 AM)
Low56 °F (Jul 16, 3:00 AM)28% (Jul 19, 3:00 PM)29.74 "Hg (Jul 29, 7:00 PM)
Average70 °F72%29.96 "Hg
* Reported Jul 16 3:00 AM — Jul 31 3:00 AM, Paderborn, Weather by CustomWeather, © 2014

Note: Actual official high and low records may vary slightly from our data, if they occured in-between our weather recording intervals... More about our weather records

Advertising

Paderborn weather history for previous 24 hours

 ConditionsComfort  
Time TempWeatherWind HumidityBarometerVisibility
3:00 AM
Jul 31
60 °FOvercast.1 mph94%29.97 "Hg7 mi
2:00 AM60 °FPassing clouds.1 mph94%29.96 "Hg7 mi
1:00 AM62 °FLight rain. Overcast.1 mph90%29.95 "Hg12 mi
12:00 AM62 °FOvercast.1 mph92%29.95 "Hg10 mi
11:00 PM
Jul 30
64 °FOvercast.1 mph87%29.94 "Hg17 mi
10:00 PM67 °FOvercast.1 mph75%29.93 "Hg19 mi
9:00 PM69 °FOvercast.1 mph69%29.90 "Hg22 mi
8:00 PM70 °FOvercast.2 mph68%29.88 "Hg22 mi
7:00 PM70 °FOvercast.2 mph69%29.87 "Hg22 mi
6:00 PM71 °FOvercast.2 mph64%29.87 "Hg22 mi
5:00 PM72 °FOvercast.3 mph61%29.87 "Hg25 mi
4:00 PM71 °FOvercast.3 mph64%29.87 "Hg22 mi
3:00 PM68 °FOvercast.2 mph75%29.88 "Hg19 mi
2:00 PM68 °FOvercast.3 mph74%29.87 "Hg18 mi
1:00 PM68 °FOvercast.5 mph72%29.86 "Hg13 mi
12:00 PM66 °FOvercast.3 mph85%29.85 "Hg9 mi
11:00 AM65 °FLow clouds.2 mph91%29.84 "Hg5 mi
10:00 AM64 °FLow clouds.2 mph94%29.83 "Hg4 mi
9:00 AM64 °FDrizzle. Low clouds.3 mph94%29.82 "Hg5 mi
8:00 AM64 °FLow clouds.2 mph93%29.80 "Hg4 mi
7:00 AM64 °FFog.2 mph92%29.79 "Hg4 mi
6:00 AM64 °FLow clouds.2 mph92%29.78 "Hg4 mi
5:00 AM65 °FFog.3 mph92%29.78 "Hg4 mi
4:00 AM65 °FLow clouds.3 mph95%29.78 "Hg3 mi
Weather by CustomWeather, © 2014

See weather overviewHow to use our weather pages